Date,TemperatureHighF,TemperatureAvgF,TemperatureLowF,DewpointHighF,DewpointAvgF,DewpointLowF,HumidityHigh,HumidityAvg,HumidityLow,PressureMaxIn,PressureMinIn,WindSpeedMaxMPH,WindSpeedAvgMPH,GustSpeedMaxMPH,PrecipitationSumIn
2013-2-3,64,62,60,56,56,54,88,81,71,29.90,29.74,26,13,43,0.00
2013-2-4,66,61,58,58,55,52,90,81,65,29.95,29.88,10,3,20,0.00
2013-2-5,59,57,55,52,48,47,76,73,69,29.85,29.82,4,1,9,0.00
2013-2-6,60,56,52,54,50,46,86,78,65,29.82,29.64,10,2,14,0.00
2013-2-7,60,58,53,54,50,47,85,75,65,29.68,29.50,29,12,42,0.06
2013-2-8,57,55,52,47,44,41,78,65,59,29.72,29.51,17,4,24,0.00
2013-2-9,59,55,50,46,43,41,73,63,54,29.85,29.72,8,3,16,0.00
2013-2-10,58,55,52,43,42,41,69,62,54,29.85,29.77,6,1,13,0.00
2013-2-11,55,52,50,37,36,34,58,54,47,30.02,29.89,11,4,21,0.00
2013-2-12,59,54,48,50,44,35,75,68,56,30.03,29.97,15,6,21,0.00
2013-2-13,59,55,49,52,48,46,91,77,67,29.97,29.86,17,7,36,0.04
2013-2-14,57,51,49,49,46,45,90,84,71,29.88,29.67,12,2,26,0.00
2013-2-15,54,50,47,47,44,43,88,80,71,30.00,29.66,13,2,22,0.00
2013-2-16,58,52,48,47,45,43,87,77,62,30.03,29.97,11,2,17,0.00
2013-2-17,50,48,46,46,42,40,90,81,74,30.04,29.92,16,4,20,0.00
2013-2-18,55,49,44,42,40,38,83,71,56,30.06,30.01,7,1,11,0.00
2013-2-19,59,53,49,51,46,41,89,76,65,30.02,29.74,9,3,20,0.00
2013-2-20,58,53,48,45,40,34,74,61,43,30.03,29.80,13,3,20,0.00
2013-2-21,57,54,52,51,45,42,83,69,63,30.02,29.70,11,3,21,0.00
2013-2-22,60,55,49,54,50,46,92,85,68,29.70,29.55,16,4,30,0.00
2013-2-23,62,57,51,54,51,49,92,82,67,30.00,29.71,8,1,13,0.00
2013-2-24,66,60,53,57,53,49,90,77,61,30.06,29.98,23,6,27,0.00
2013-2-25,66,63,60,56,54,52,86,73,62,30.05,29.95,17,8,27,0.00
2013-2-26,63,60,55,56,52,44,89,76,61,30.01,29.93,15,4,23,0.00
2013-2-27,58,55,53,46,44,42,76,66,55,30.02,29.92,14,3,23,0.05
2013-3-3,56,54,50,45,41,39,71,62,55,29.94,29.77,26,8,33,0.02
2013-3-4,59,53,47,46,42,38,75,66,52,30.14,29.94,7,1,12,0.00
2013-3-5,57,53,50,45,40,35,79,62,51,30.38,30.14,12,4,19,0.00
2013-3-6,56,52,46,43,38,35,71,60,49,30.36,30.12,8,1,12,0.00
2013-3-7,58,55,53,52,48,44,88,79,67,30.13,29.90,6,1,10,0.01
2013-3-8,60,56,53,54,52,51,92,86,79,29.90,29.82,5,1,10,0.00
2013-3-9,66,60,55,57,54,52,93,82,68,29.83,29.70,8,1,17,0.00
2013-3-10,67,61,59,56,53,50,86,74,65,29.80,29.70,9,2,17,0.00
2013-3-11,65,61,57,59,55,48,87,80,60,29.70,29.56,10,2,23,0.00
2013-3-12,67,62,59,54,48,45,73,61,45,29.69,29.56,11,4,20,0.00
2013-3-13,64,60,54,57,51,46,88,72,62,29.72,29.66,17,6,24,0.00
2013-3-14,67,63,59,57,53,45,88,70,55,29.68,29.27,30,11,39,0.00
2013-3-15,60,57,54,47,45,42,69,63,57,29.58,29.36,17,6,24,0.00
2013-3-16,57,53,50,43,39,36,73,60,49,29.97,29.58,19,5,25,0.00
2013-3-17,55,50,46,38,37,36,70,63,51,30.10,29.97,6,2,12,0.00
2013-3-18,56,55,54,50,49,48,84,80,76,30.00,29.93,9,6,17,0.01
2013-3-19,62,59,56,56,52,49,84,78,73,29.93,29.75,16,8,25,0.00
2013-3-20,66,61,55,56,52,49,87,75,57,29.88,29.79,12,3,19,0.00
2013-3-21,67,64,61,57,54,47,84,69,58,29.77,29.51,18,8,28,0.00
2013-3-22,63,59,55,45,41,37,69,53,41,29.73,29.53,25,11,37,0.00
2013-3-23,62,57,52,45,36,20,66,46,23,29.94,29.74,9,3,17,0.00
2013-3-24,63,59,53,54,50,44,82,72,65,29.98,29.90,13,4,24,0.00
2013-3-25,65,61,57,57,54,49,88,76,65,29.91,29.59,22,8,33,0.00
2013-3-26,66,61,56,57,52,49,89,73,57,29.63,29.50,14,5,23,0.01
2013-3-27,65,61,56,56,51,47,76,69,63,29.79,29.63,9,2,19,0.00
2013-3-28,63,60,58,56,53,49,85,76,64,30.03,29.80,10,2,14,0.01
2013-3-29,62,60,56,56,54,52,88,83,71,30.03,29.96,6,1,8,0.00
2013-3-30,71,64,58,58,55,51,87,73,53,29.96,29.79,14,2,25,0.00
2013-3-31,67,64,62,59,56,52,84,74,63,29.82,29.69,15,5,19,0.00
2013-4-1,71,64,58,57,50,43,88,64,37,29.86,29.73,11,3,19,0.00
2013-4-2,68,64,59,57,51,47,78,63,50,29.85,29.54,17,6,26,0.00
2013-4-3,68,64,60,58,52,46,88,65,46,29.64,29.43,14,6,26,0.00
2013-4-4,69,63,58,52,49,45,73,61,43,29.89,29.65,21,6,25,0.00
2013-4-5,68,63,59,55,51,45,76,64,45,29.92,29.76,18,6,29,0.00
2013-4-6,72,65,60,58,53,49,73,65,44,29.78,29.69,9,2,23,0.00
2013-4-7,70,66,62,59,53,48,88,63,49,29.66,29.28,16,6,32,0.01
2013-4-8,63,61,58,55,51,48,83,70,61,29.84,29.37,11,4,20,0.00
2013-4-9,64,60,56,53,51,48,78,71,59,29.96,29.85,9,3,14,0.00
2013-4-10,64,61,57,56,52,50,80,72,66,29.96,29.88,10,3,15,0.00
2013-4-11,69,63,57,58,52,48,79,68,53,29.99,29.88,11,2,17,0.00
2013-4-12,68,63,58,58,52,46,79,69,51,30.03,29.95,11,3,20,0.00
2013-4-13,69,65,60,58,52,48,73,64,53,30.07,30.02,10,2,15,0.00
2013-4-14,77,67,63,57,52,47,73,59,36,30.06,30.00,12,3,27,0.00
2013-4-15,65,61,58,48,45,39,65,55,41,30.06,29.96,19,6,27,0.00
2013-4-16,58,56,56,47,46,45,74,69,63,30.03,30.00,10,4,24,0.01
2013-5-7,69,69,69,61,61,61,77,77,77,29.87,29.87,5,5,7,0.00
2013-5-8,75,70,68,62,59,57,79,70,60,29.87,29.77,14,2,20,0.00
2013-5-9,71,68,66,61,57,54,77,68,60,29.85,29.79,11,3,23,0.00
2013-5-10,73,68,62,58,56,52,87,67,52,29.86,29.80,17,3,19,0.01
2013-5-11,72,68,63,62,58,54,78,72,62,29.85,29.72,11,3,19,0.00
2013-5-16,72,69,65,64,59,54,85,73,57,29.88,29.81,13,3,20,0.00
2013-5-17,80,71,66,64,61,55,86,71,45,29.89,29.79,13,3,21,0.00
2013-5-18,77,72,67,66,63,60,80,72,59,29.96,29.86,7,1,12,0.00
2013-5-19,81,76,71,68,62,55,80,64,41,29.94,29.86,9,2,18,0.00
2013-5-20,81,76,71,70,64,60,81,67,55,29.89,29.83,7,1,12,0.00
2013-5-21,81,76,72,67,62,55,77,61,49,29.90,29.82,12,2,17,0.00
2013-5-22,83,75,70,68,62,51,84,65,33,29.87,29.68,14,4,26,0.00
2013-5-23,80,76,71,66,60,52,76,58,43,29.68,29.54,17,7,28,0.00
2013-5-24,77,72,69,62,55,52,64,56,47,29.87,29.67,10,4,18,0.00
2013-5-25,74,71,67,62,57,52,70,62,49,29.92,29.85,14,6,21,0.00
2013-5-26,80,73,67,64,56,49,67,57,34,29.92,29.81,10,3,22,0.00
2013-5-27,74,70,66,57,51,44,63,50,40,29.94,29.86,12,4,22,0.00
2013-5-28,73,69,64,63,59,52,78,69,52,29.92,29.73,9,2,17,0.00
2013-5-29,80,75,68,65,60,50,80,62,44,29.72,29.54,13,3,22,0.00
2013-5-30,80,74,71,66,61,55,79,63,47,29.70,29.62,10,3,20,0.00
2013-5-31,79,75,70,63,54,47,77,49,33,29.75,29.64,19,6,29,0.00
2013-6-1,71,68,66,60,53,45,80,60,45,29.83,29.75,15,4,22,0.02
2013-6-2,74,69,64,60,56,51,82,64,45,29.80,29.65,14,3,25,0.00
2013-6-3,74,70,65,63,56,53,74,62,54,29.84,29.79,12,3,22,0.00
2013-6-4,75,72,68,65,59,53,76,65,50,29.85,29.78,14,4,18,0.00
2013-6-5,77,72,68,62,58,53,71,60,46,29.92,29.84,12,3,20,0.00
2013-6-6,78,72,67,66,61,56,80,69,54,29.97,29.89,11,3,19,0.00
2013-6-7,74,72,70,64,61,57,80,70,58,29.96,29.89,6,1,9,0.00
2013-7-1,83,78,76,66,59,50,71,54,33,29.96,29.89,8,4,18,0.00
2013-7-2,82,78,73,67,63,55,75,61,43,29.97,29.90,9,2,16,0.00
2013-7-3,85,80,74,67,59,54,74,51,38,29.92,29.83,13,3,21,0.00
2013-7-4,86,81,76,69,57,50,64,45,33,29.87,29.79,13,4,22,0.00
2013-7-5,87,82,76,62,55,50,46,40,32,29.86,29.79,14,4,21,0.00
2013-7-6,86,82,77,65,60,57,63,48,39,29.85,29.78,18,5,23,0.00
2013-7-7,88,84,79,64,62,58,59,48,41,29.90,29.79,16,8,22,0.00
2013-7-8,92,86,80,61,58,55,50,39,29,29.92,29.86,13,6,23,0.00
2013-7-9,92,87,82,64,58,55,47,39,33,29.92,29.77,18,7,24,0.00
2013-7-17,81,79,78,58,57,56,50,47,43,29.91,29.89,8,5,22,0.00
2013-7-18,85,80,76,60,56,52,56,44,32,29.96,29.90,19,7,29,0.00
2013-7-19,87,82,77,57,54,49,48,39,31,29.96,29.84,16,7,24,0.00
2013-7-20,90,83,76,58,54,49,48,38,27,29.86,29.75,15,4,22,0.00
2013-7-21,93,86,79,57,55,51,44,35,27,29.82,29.75,14,5,22,0.00
2013-7-22,85,81,78,65,60,54,65,49,37,29.84,29.78,16,8,29,0.00
2013-7-23,88,81,75,61,54,44,56,41,23,29.84,29.78,15,6,23,0.00
2013-7-24,94,85,77,63,52,47,46,33,21,29.84,29.81,16,4,20,0.00
2013-7-27,93,86,80,71,61,53,68,44,28,29.83,29.78,9,3,21,0.00
2013-7-28,92,90,85,59,57,55,37,34,32,29.93,29.89,19,8,23,0.00
2013-7-29,94,88,81,58,55,49,46,33,22,29.94,29.86,16,6,24,0.00
2013-7-30,92,86,82,73,63,54,69,46,32,29.86,29.70,10,3,16,0.00
2013-7-31,96,88,82,69,64,60,58,45,34,29.70,29.67,10,3,16,0.00
2013-8-1,89,87,83,67,61,57,58,42,37,29.87,29.81,14,9,26,0.00
2013-8-2,89,84,80,62,59,54,53,43,32,29.89,29.85,18,7,25,0.00
2013-8-3,91,86,80,60,58,53,51,39,30,29.88,29.85,18,6,26,0.00
2013-8-4,96,88,81,60,56,50,44,34,22,29.88,29.83,16,5,26,0.00
2013-8-5,88,84,80,62,55,48,48,38,25,29.90,29.84,23,9,29,0.00
2013-8-6,84,81,80,57,54,52,44,40,33,29.87,29.82,21,8,29,0.00
2013-8-9,93,87,81,61,56,50,49,36,26,29.87,29.74,23,7,25,0.00
2013-8-10,90,83,78,74,64,52,80,54,34,29.75,29.58,9,3,14,0.00
2013-8-11,90,84,78,71,59,48,80,47,24,29.79,29.62,16,6,24,0.00
2013-8-12,91,86,80,62,56,52,50,37,27,29.86,29.79,14,6,24,0.00
2013-8-13,93,87,80,58,54,51,44,33,25,29.85,29.79,15,6,26,0.00
2013-8-14,94,87,81,59,54,48,44,33,22,29.81,29.74,16,4,26,0.00
2013-8-15,94,87,82,61,56,50,44,35,23,29.82,29.75,19,6,26,0.00
2013-8-16,88,85,79,67,64,59,65,50,42,29.82,29.77,15,8,28,0.00
2013-8-17,84,80,79,66,66,65,65,62,55,29.82,29.78,15,7,25,0.00
2013-8-20,94,90,84,59,52,49,36,28,22,29.81,29.76,18,8,22,0.00
2013-8-21,88,84,80,62,58,49,53,42,31,29.83,29.79,20,8,24,0.00
2013-8-22,86,81,77,63,60,56,58,50,38,29.82,29.76,11,5,21,0.00
2013-8-23,89,83,78,62,56,48,54,41,29,29.87,29.79,12,5,19,0.00
2013-8-24,83,81,77,69,59,48,63,48,31,29.89,29.82,11,3,16,0.00
2013-8-25,85,81,78,72,64,56,71,57,46,29.83,29.77,9,2,15,0.00
2013-8-26,86,82,78,74,64,58,71,56,43,29.84,29.77,7,2,14,0.00
2013-8-27,87,83,78,74,67,59,71,59,42,29.84,29.77,8,1,15,0.00
2013-8-28,90,85,80,73,67,62,67,56,44,29.81,29.75,13,2,17,0.00
2013-8-29,90,84,80,75,70,60,75,62,37,29.85,29.78,13,3,19,0.00
2013-8-30,90,84,80,73,65,57,77,54,35,29.87,29.78,9,2,16,0.00
2013-8-31,84,80,78,72,63,57,77,57,40,29.88,29.84,10,2,16,0.00
2013-9-3,84,79,75,68,64,60,69,62,50,30.03,29.92,13,2,18,0.00
2013-9-4,84,80,77,68,59,54,71,49,39,30.04,29.94,14,5,21,0.00
2013-9-5,80,77,72,58,55,50,56,47,39,30.05,29.92,12,2,18,0.00
2013-9-6,80,77,73,67,62,56,68,61,51,29.93,29.84,14,2,18,0.00
2013-9-7,79,77,75,68,66,62,74,70,63,29.96,29.87,5,1,9,0.00
2013-9-8,86,79,74,69,59,49,70,51,34,30.06,29.95,13,4,19,0.00
2013-9-9,85,79,73,57,52,47,55,40,29,30.09,30.02,18,4,20,0.00
2013-9-10,81,78,74,67,61,50,67,57,39,30.04,29.95,9,2,16,0.00
2013-9-11,83,79,74,73,68,63,78,68,60,29.97,29.89,12,3,13,0.00
2013-9-12,84,81,77,75,68,63,78,64,52,29.91,29.85,7,2,13,0.00
2013-9-13,84,81,77,73,69,64,77,68,53,29.90,29.84,11,3,17,0.00
2013-9-14,84,80,76,66,59,52,61,50,34,29.96,29.88,10,4,20,0.00
2013-9-15,76,75,75,63,62,62,65,64,63,29.86,29.86,6,5,12,0.00
2013-9-16,81,77,74,68,64,57,69,64,46,29.84,29.59,12,3,23,0.00
2013-9-17,80,76,72,68,64,61,75,65,53,29.67,29.59,14,4,18,0.00
2013-9-18,84,79,74,66,61,55,70,56,37,29.63,29.57,13,5,21,0.00
2013-9-19,82,77,73,66,62,56,69,60,49,29.70,29.61,11,2,15,0.00
2013-9-20,81,77,73,68,64,60,72,65,53,29.88,29.70,12,3,16,0.00
2013-9-21,80,75,72,65,61,59,74,62,51,29.98,29.88,10,3,16,0.00
2013-9-22,76,72,69,59,55,52,60,54,45,30.01,29.97,11,4,20,0.00
2013-9-23,78,72,66,55,51,48,64,49,38,30.00,29.87,11,2,21,0.00
2013-9-24,78,73,68,62,57,51,67,58,45,29.90,29.84,10,3,15,0.00
2013-9-25,78,74,69,68,63,59,80,69,60,29.96,29.89,11,2,15,0.00
2013-9-26,79,75,70,67,65,62,81,72,61,29.96,29.85,7,1,16,0.00
2013-9-27,82,76,72,67,63,58,73,64,45,29.87,29.80,10,2,18,0.00
2013-9-28,78,75,70,67,64,61,75,70,59,29.89,29.84,11,2,16,0.00
2013-9-29,79,76,72,70,65,60,82,70,59,29.89,29.81,10,3,15,0.00
2013-9-30,81,76,71,71,68,64,86,76,66,29.83,29.60,16,4,27,0.00
2013-10-1,78,74,68,72,66,61,90,77,57,29.61,29.49,21,4,27,0.00
2013-10-2,75,71,65,62,58,55,73,63,55,29.88,29.57,11,4,18,0.00
2013-10-3,64,62,60,56,51,46,84,69,57,30.20,29.89,12,5,21,0.00
2013-10-4,61,59,58,46,45,43,65,59,55,30.30,30.20,11,5,19,0.00
2013-10-5,64,59,56,45,43,42,62,56,46,30.30,30.21,11,5,21,0.00
2013-10-6,67,61,56,48,45,37,66,55,44,30.28,30.20,9,2,14,0.00
2013-10-7,72,64,58,50,47,44,69,56,38,30.29,30.22,7,3,17,0.00
2013-10-8,74,67,62,56,50,46,62,56,39,30.28,30.20,8,2,14,0.00
2013-10-9,74,68,62,59,53,47,70,60,39,30.22,30.10,7,2,11,0.00
2013-10-10,73,68,65,65,61,56,85,77,67,30.11,30.01,6,0,13,0.00
2013-10-11,77,71,65,69,63,59,85,77,62,30.14,30.04,8,1,11,0.00
2013-10-12,80,73,67,70,66,63,88,80,61,30.16,30.09,7,1,13,0.00
2013-10-13,78,72,68,68,66,60,90,81,64,30.12,30.07,5,1,10,0.00
2013-10-14,79,73,68,64,58,54,75,60,50,30.10,30.02,6,1,8,0.00
2013-10-15,75,72,67,67,62,58,83,73,64,30.09,29.92,8,1,12,0.00
2013-10-16,75,72,66,68,64,61,86,77,61,29.92,29.55,11,2,22,0.00
2013-10-17,73,68,64,66,56,44,80,65,44,29.70,29.47,15,5,29,0.01
2013-10-18,74,68,63,59,51,46,68,55,42,29.97,29.70,14,3,17,0.00
2013-10-19,76,69,65,56,47,43,69,46,31,30.28,29.97,12,2,15,0.00
2013-10-20,74,67,62,52,49,45,66,53,37,30.36,30.28,9,2,12,0.00
2013-10-21,71,65,59,57,51,44,75,60,47,30.29,30.15,5,1,10,0.00
2013-10-22,72,67,61,60,57,54,82,72,61,30.16,30.07,5,1,8,0.00
2013-10-23,80,71,63,57,53,47,77,55,42,30.15,30.09,17,4,21,0.00
2013-10-24,76,70,65,55,51,45,68,52,41,30.16,30.10,12,3,20,0.00
2013-10-25,76,67,62,54,49,45,60,52,38,30.13,30.06,6,2,12,0.00
2013-10-27,66,65,65,56,54,54,72,68,65,30.05,30.04,0,0,0,0.00
2013-10-28,65,62,60,57,54,50,76,74,70,30.04,30.02,4,0,5,0.00